[[{"header":{"parameterUnit":"m.s-1","parameterCategory":1,"la1":30.2991,"la2":30.254,"lo1":-89.0895,"lo2":-89.0444,"dx":0.0017,"dy":0.0017,"nx":28,"ny":28,"refTime":"2023-01-23T03:00:00:Z","depth":0,"parameterNumber":2,"parameterNumberName":"U-component_of_WINDS"},"data":[0,0,0,0,0,0,0,0,0,0,0,0,0,0,0,0,0,0,0,0,0,0,0,0,0,0,0,0,0,0,0,0,0,0,0,0,0,0,0,0,0,0,0,0,0,0,0,0,0,0,0,0,0,0,0,0,0,0,-8.5654,-8.5657,0,-8.5913,-8.5916,-8.5919,-8.5955,-8.5953,-8.595,-8.5948,-8.6209,-8.6218,-8.6227,0,0,0,0,0,0,0,0,0,0,0,0,0,-8.519,-8.5199,-8.5654,-8.5657,-8.5661,-8.5912,-8.5916,-8.5919,-8.5955,-8.5953,-8.595,-8.5947,-8.6206,-8.6217,-8.6228,0,0,0,0,0,0,0,0,0,0,0,0,0,-8.5414,-8.5201,-8.5653,-8.5709,-8.5717,-8.5912,-8.5916,-8.592,-8.5956,-8.5952,-8.5949,-8.5946,-8.6202,-8.6216,-8.6229,-8.6386,0,0,-8.6271,-8.6277,0,0,0,0,0,0,0,0,-8.5402,-8.5431,-8.5698,-8.5706,-8.5714,-8.5898,-8.5848,-8.6076,-8.5957,-8.5865,-8.5948,-8.5944,-8.6108,-8.613,-8.6186,-8.6398,-8.6409,-8.6273,-8.6281,-8.6287,-8.6291,0,0,0,0,0,0,0,-8.5386,-8.5421,-8.5756,-8.5701,-8.5712,-8.5721,-8.5748,-8.5892,-8.6003,-8.5873,-8.5876,-8.5906,-8.6112,-8.6172,-8.6192,-8.6413,-8.6272,-8.6285,-8.6293,-8.6298,-8.6768,-8.6773,0,0,0,0,0,0,-8.5361,-8.5407,-8.5748,-8.5764,-8.5546,-8.5732,-8.5763,-8.5843,-8.6002,-8.6023,-8.5909,-8.5907,-8.6151,-8.6176,-8.6201,-8.6395,-8.6287,-8.63,-8.6308,-8.6764,-8.6769,-8.6774,0,0,0,0,0,0,-8.5351,-8.5391,-8.5738,-8.5587,-8.5632,-8.5744,-8.5833,-8.585,-8.591,-8.603,-8.6049,-8.595,-8.6149,-8.6182,-8.634,-8.6404,-8.6306,-8.6318,-8.6759,-8.6766,-8.6772,-8.6783,0,0,0,0,0,0,-8.5337,-8.5387,-8.5447,-8.5588,-8.564,-8.5872,-8.5837,-8.5857,-8.5934,-8.5934,-8.6073,-8.6093,-8.6149,-8.632,-8.6354,-8.6422,-8.6329,-8.6754,-8.6762,-8.677,-8.6777,-8.6789,-8.6799,0,0,0,0,0,-8.5321,-8.5439,-8.545,-8.5491,-8.5718,-8.5876,-8.5905,-8.5968,-8.5939,-8.6001,-8.6078,-8.6088,-8.6393,-8.6336,-8.6375,-8.6447,-8.675,-8.676,-8.6769,-8.6772,-8.6786,-8.6798,0,0,0,0,0,0,-8.5301,-8.5459,-8.5472,-8.564,-8.5745,-8.5882,-8.5961,-8.5981,-8.6094,-8.6089,-8.6162,-8.6193,-8.6347,-8.6414,-8.6347,-8.6608,-8.6569,-8.6587,-8.6558,-8.6572,-8.6583,-8.6562,-8.6341,0,0,0,0,0,-8.5317,-8.5433,-8.5564,-8.57,-8.5752,-8.5848,-8.5919,-8.5959,-8.6069,-8.6113,-8.6202,-8.6308,-8.6427,-8.6504,-8.6621,-8.6789,-8.6819,-8.6858,-8.6869,-8.6877,-8.689,-8.6984,-8.7003,-8.6805,-8.6805,-8.6805,0,0,-8.535,-8.545,-8.5518,-8.5699,-8.5784,-8.5902,-8.5884,-8.6009,-8.6097,-8.6131,-8.6286,-8.6356,-8.6479,-8.6643,-8.6719,-8.6703,-8.6953,-8.6889,-8.6895,-8.6904,-8.6996,-8.7014,-8.7031,-8.6812,-8.6811,-8.681,0,0,-8.5469,-8.5557,-8.568,-8.5767,-8.5898,-8.5961,-8.5991,-8.6126,-8.6174,-8.6331,-8.636,-8.6466,-8.667,-8.6757,-8.6828,-8.6985,-8.6998,-8.7021,-8.7076,-8.7166,-8.7182,-8.7196,-8.725,-8.7269,-8.7035,-8.7035,-8.7035,0,-8.5492,-8.5671,-8.574,-8.5865,-8.5943,-8.5983,-8.6107,-8.6188,-8.6349,-8.6402,-8.6383,-8.6642,-8.6728,-8.6912,-8.6951,-8.7008,-8.7043,-8.7003,-8.7174,-8.7189,-8.7203,-8.7256,-8.7276,-8.7037,-8.7037,-8.7036,-8.7036,0,-8.5693,-8.5818,-8.5901,-8.6058,-8.6146,-8.627,-8.6357,-8.6439,-8.6472,-8.6538,-8.6698,-8.6803,-8.6942,-8.699,-8.7023,-8.718,-8.7166,-8.716,-8.7121,-8.7223,-8.7273,-8.7294,-8.7039,-8.7039,-8.7038,-8.7038,0,0,-8.5802,-8.5999,-8.6028,-8.61,-8.6249,-8.6346,-8.6473,-8.6611,-8.6678,-8.679,-8.6897,-8.7072,-8.7068,-8.7148,-8.7192,-8.7272,-8.7389,-8.7257,-8.7261,-8.7275,-8.7567,-8.7568,-8.759,-8.7401,-8.7405,-8.7408,-8.7556,0,-8.5937,-8.6164,-8.6231,-8.6421,-8.6537,-8.6579,-8.6689,-8.6792,-8.6859,-8.6966,-8.7039,-8.7161,-8.7148,-8.7197,-8.7278,-8.7357,-8.7448,-8.7348,-8.7499,-8.7504,-8.7463,-8.7617,-8.7618,-8.7752,-8.7576,-8.758,-8.7582,0,-8.6122,-8.6239,-8.6441,-8.6578,-8.6629,-8.6726,-8.6859,-8.6962,-8.7081,-8.7124,-8.7216,-8.7254,-8.7388,-8.7345,-8.753,-8.7461,-8.7528,-8.7577,-8.7584,-8.7597,-8.7546,-8.7631,-8.7797,-8.7815,-8.7614,-8.7612,-8.761,0,-8.6179,-8.6387,-8.6535,-8.6596,-8.6759,-8.6827,-8.6898,-8.7013,-8.7093,-8.7209,-8.7261,-8.7391,-8.7461,-8.7561,-8.7634,-8.7597,-8.7812,-8.7776,-8.785,-8.7848,-8.789,-8.7885,-8.8064,-8.7939,-8.7938,-8.7938,-8.7937,0,-8.632,-8.6441,-8.6563,-8.6653,-8.6791,-8.6869,-8.7003,-8.7076,-8.7179,-8.7284,-8.733,-8.7427,-8.7519,-8.7629,-8.7687,-8.7831,-8.7863,-8.79,-8.7913,-8.7894,-8.7889,-8.7936,-8.7927,-8.7943,-8.7942,-8.7941,-8.794,0,-8.6403,-8.649,-8.6654,-8.6797,-8.6836,-8.6931,-8.7052,-8.7142,-8.7212,-8.7345,-8.7381,-8.749,-8.7622,-8.7706,-8.7874,-8.7913,-8.807,-8.8082,-8.8029,-8.8035,-8.8103,-8.8094,-8.8315,-8.8348,-8.8203,-8.8204,-8.8205,0,-8.6485,-8.658,-8.6734,-8.6809,-8.6881,-8.7,-8.7082,-8.7163,-8.7246,-8.7391,-8.7463,-8.7599,-8.7711,-8.7921,-8.8015,-8.8144,-8.8157,-8.8227,-8.8177,-8.8155,-8.8156,-8.8147,-8.8157,-8.8233,-8.8234,-8.8235,-8.8236,0,-8.6622,-8.6661,-8.6777,-8.691,-8.7007,-8.7115,-8.7223,-8.7281,-8.7381,-8.7472,-8.7609,-8.7697,-8.787,-8.8004,-8.8142,-8.8215,-8.8242,-8.8252,-8.8275,-8.8254,-8.8219,-8.8237,-8.8048,-8.8245,-8.8244,-8.8243,-8.8243,-8.8242,-8.6706,-8.6792,-8.6914,-8.7043,-8.7134,-8.7234,-8.7325,-8.7408,-8.7524,-8.7672,-8.7713,-8.7856,-8.7975,-8.8164,-8.824,-8.8353,-8.8343,-8.8378,-8.8386,-8.8392,-8.8392,-8.8205,-8.8379,-8.8378,-8.8378,-8.8378,-8.8378,0,-8.6842,-8.6923,-8.7042,-8.7192,-8.7294,-8.7314,-8.7435,-8.7518,-8.7643,-8.7753,-8.7864,-8.8022,-8.8153,-8.8259,-8.8394,-8.8464,-8.8479,-8.8496,-8.849,-8.8506,-8.8394,-8.8359,-8.8481,-8.8481,-8.8481,-8.8481,-8.8481,-8.8481,-8.6924,-8.7071,-8.7125,-8.7318,-8.74,-8.754,-8.7608,-8.7701,-8.7789,-8.7963,-8.8073,-8.8142,-8.8251,-8.8395,-8.8516,-8.8544,-8.859,-8.8604,-8.8634,-8.8526,-8.8514,-8.8503,-8.847,-8.8614,-8.8614,-8.8736,-8.8738,-8.8738]},{"header":{"parameterUnit":"m.s-1","parameterCategory":1,"la1":30.2991,"la2":30.254,"lo1":-89.0895,"lo2":-89.0444,"dx":0.0017,"dy":0.0017,"nx":28,"ny":28,"refTime":"2023-01-23T03:00:00:Z","depth":0,"parameterNumber":3,"parameterNumberName":"V-component_of_WINDS"},"data":[0,0,0,0,0,0,0,0,0,0,0,0,0,0,0,0,0,0,0,0,0,0,0,0,0,0,0,0,0,0,0,0,0,0,0,0,0,0,0,0,0,0,0,0,0,0,0,0,0,0,0,0,0,0,0,0,0,0,4.5932,4.5933,0,4.6004,4.6005,4.6006,4.5998,4.5996,4.5995,4.5994,4.6064,4.6067,4.607,0,0,0,0,0,0,0,0,0,0,0,0,0,4.5785,4.5788,4.5932,4.5933,4.5934,4.6004,4.6005,4.6006,4.5998,4.5996,4.5995,4.5994,4.6063,4.6067,4.607,0,0,0,0,0,0,0,0,0,0,0,0,0,4.5852,4.5789,4.5932,4.5938,4.5939,4.6004,4.6005,4.6006,4.5998,4.5996,4.5995,4.5993,4.6062,4.6067,4.6071,4.6132,0,0,4.6084,4.6086,0,0,0,0,0,0,0,0,4.5848,4.5858,4.5936,4.5938,4.5939,4.599,4.5979,4.6048,4.5998,4.5976,4.5994,4.5992,4.6041,4.6047,4.6064,4.6136,4.6139,4.6085,4.6087,4.6089,4.6091,0,0,0,0,0,0,0,4.5844,4.5854,4.596,4.5937,4.5939,4.5937,4.5945,4.5992,4.6017,4.5977,4.5977,4.5986,4.6041,4.606,4.6066,4.614,4.6085,4.6089,4.6091,4.6093,4.6268,4.627,0,0,0,0,0,0,4.5838,4.5851,4.5958,4.5962,4.5889,4.5941,4.5949,4.5975,4.6016,4.6021,4.5987,4.5985,4.6053,4.6061,4.6068,4.6145,4.6089,4.6093,4.6096,4.6266,4.6269,4.6271,0,0,0,0,0,0,4.5835,4.5847,4.5955,4.5907,4.592,4.5945,4.5975,4.5978,4.5996,4.6024,4.6028,4.6002,4.6052,4.6062,4.6117,4.6147,4.6095,4.6099,4.6264,4.6267,4.627,4.6297,0,0,0,0,0,0,4.5831,4.5846,4.587,4.5907,4.5923,4.6004,4.5976,4.598,4.6004,4.6003,4.6039,4.6043,4.6052,4.6111,4.6122,4.6152,4.6103,4.6261,4.6265,4.6269,4.6294,4.6301,4.6307,0,0,0,0,0,4.5825,4.5873,4.5871,4.5884,4.5953,4.6005,4.6014,4.6024,4.6007,4.6031,4.6049,4.6042,4.6142,4.6117,4.6129,4.6161,4.626,4.6264,4.6269,4.6291,4.6299,4.6307,0,0,0,0,0,0,4.5837,4.5878,4.5876,4.5938,4.5969,4.6004,4.6034,4.6033,4.6067,4.6064,4.6074,4.6082,4.6139,4.6155,4.6126,4.6224,4.6198,4.6206,4.6211,4.622,4.6226,4.6221,4.6106,0,0,0,0,0,4.5847,4.5887,4.5921,4.5972,4.5987,4.6009,4.6032,4.6037,4.6068,4.6081,4.6103,4.6133,4.6171,4.6196,4.6233,4.6296,4.6305,4.6325,4.6331,4.6336,4.6342,4.6379,4.6389,4.6286,4.6286,4.6286,0,0,4.5868,4.5895,4.5919,4.5975,4.5999,4.604,4.6019,4.6062,4.6093,4.6087,4.6142,4.6159,4.6193,4.6254,4.6281,4.6269,4.6373,4.6342,4.6346,4.6349,4.6385,4.6395,4.6404,4.6289,4.6288,4.6288,0,0,4.5926,4.5951,4.5998,4.6023,4.6061,4.6075,4.6087,4.6123,4.6135,4.6191,4.6188,4.6224,4.6289,4.6315,4.6336,4.6409,4.6404,4.642,4.6454,4.649,4.6498,4.6505,4.6532,4.6542,4.6426,4.6426,4.6426,0,4.5947,4.6009,4.6021,4.6067,4.6092,4.6091,4.6138,4.6162,4.6209,4.6227,4.6213,4.6297,4.632,4.6387,4.6406,4.6422,4.6436,4.6416,4.6496,4.6504,4.651,4.6536,4.6546,4.6428,4.6428,4.6428,4.6427,0,4.6033,4.6077,4.611,4.6159,4.6187,4.6233,4.6252,4.628,4.6284,4.63,4.6357,4.6385,4.6429,4.6445,4.6448,4.6514,4.6506,4.6494,4.6468,4.6522,4.6547,4.6557,4.6431,4.643,4.6429,4.6429,0,0,4.6099,4.6157,4.6169,4.6192,4.6235,4.6269,4.6316,4.636,4.6385,4.6418,4.6458,4.6515,4.6506,4.653,4.6536,4.6568,4.6625,4.6552,4.6553,4.6566,4.6702,4.6711,4.6722,4.6623,4.6625,4.6626,4.6699,0,4.6163,4.6248,4.6261,4.6335,4.6376,4.6377,4.6418,4.6449,4.6466,4.6503,4.6521,4.6562,4.6546,4.6561,4.6592,4.6612,4.6653,4.6607,4.666,4.6662,4.6652,4.6734,4.6744,4.6811,4.6709,4.671,4.6711,0,4.6249,4.6287,4.6366,4.6407,4.6424,4.6461,4.6505,4.654,4.6576,4.6586,4.6615,4.6618,4.6667,4.664,4.6708,4.6676,4.6699,4.6712,4.6715,4.6721,4.669,4.6743,4.6833,4.6843,4.6726,4.6725,4.6724,0,4.6291,4.6362,4.6419,4.6439,4.6487,4.6513,4.6534,4.6569,4.6596,4.6633,4.6651,4.6693,4.6716,4.6749,4.6764,4.6743,4.6832,4.6805,4.6841,4.6841,4.686,4.6858,4.6955,4.6874,4.6873,4.6873,4.6873,0,4.6361,4.6409,4.644,4.6474,4.6529,4.6545,4.6598,4.6618,4.665,4.6689,4.6691,4.6728,4.6745,4.6784,4.6796,4.6851,4.6861,4.6871,4.6873,4.6871,4.687,4.6886,4.6882,4.6876,4.6875,4.6875,4.6874,0,4.6417,4.6439,4.6502,4.6544,4.6555,4.6594,4.663,4.6664,4.6681,4.6731,4.6743,4.6771,4.6817,4.6836,4.6891,4.6899,4.6964,4.6962,4.6952,4.6953,4.6989,4.6986,4.71,4.7116,4.7023,4.7024,4.7025,0,4.6461,4.6499,4.6546,4.6573,4.6596,4.6639,4.6668,4.6685,4.6714,4.676,4.6789,4.6836,4.6875,4.6949,4.6973,4.7017,4.7017,4.7054,4.7023,4.702,4.7019,4.7017,4.7021,4.7059,4.706,4.7061,4.7062,0,4.6537,4.6547,4.6588,4.6635,4.6669,4.6706,4.6742,4.6764,4.6786,4.6819,4.6868,4.6899,4.6958,4.7005,4.705,4.7071,4.7071,4.7071,4.7082,4.708,4.7074,4.7079,4.6969,4.7068,4.7068,4.7067,4.7067,4.7067,4.6589,4.6623,4.6663,4.671,4.6739,4.6774,4.6809,4.6832,4.6874,4.6924,4.6932,4.6985,4.7021,4.7083,4.7106,4.7148,4.7138,4.7153,4.7157,4.7161,4.7164,4.7067,4.7156,4.7155,4.7155,4.7155,4.7155,0,4.6666,4.6692,4.6735,4.6787,4.6824,4.6823,4.6863,4.6894,4.6941,4.6976,4.7015,4.7072,4.7119,4.7148,4.7195,4.7222,4.7223,4.7234,4.7232,4.7238,4.7169,4.7156,4.7233,4.7233,4.7232,4.7232,4.7232,4.7232,4.671,4.677,4.6785,4.6859,4.6885,4.6938,4.6962,4.6993,4.7022,4.7086,4.7126,4.7145,4.7178,4.7228,4.7271,4.7278,4.7296,4.7307,4.7314,4.725,4.7242,4.7234,4.7222,4.7311,4.7311,4.7379,4.7379,4.738]}]]